This demonstration page uses our WeatherBlox Daily Observations layout. Learn more.

Left ArrowRight Arrow

Hourly Observations for October 18, 2021

Temp ( °F °C ) Dew Point ( °F °C ) Humidity (%) Winds ( mph kmh ) Pressure ( in mb ) Visibility ( mi km ) Precip ( " mm )
12:15 am 00:15 Clear 49 9.4 39 3.7 68 68 SSE 8 13 30.01 1016 10 16 N/A
12:35 am 00:35 Clear 48 8.9 38 3.4 69 69 SSE 7 11 30.00 1016 10 16 N/A
12:55 am 00:55 Clear 49 9.6 38 3.2 65 65 SE 6 9 29.99 1016 10 16 N/A
1:15 am 01:15 Clear 50 10 37 3 62 62 SE 6 9 29.99 1016 10 16 N/A
1:35 am 01:35 Clear 50 10 37 2.6 60 60 SE 5 7 29.98 1015 10 16 N/A
1:55 am 01:55 Clear 48 9.1 36 2.4 63 63 SE 7 11 29.99 1016 10 16 N/A
2:15 am 02:15 Clear 48 9.1 37 2.5 64 64 SE 6 9 29.99 1016 10 16 N/A
2:35 am 02:35 Clear 48 8.7 36 2.1 64 64 SE 6 9 29.98 1015 10 16 N/A
2:55 am 02:55 Clear 40 4.7 35 1.7 81 81 ESE 5 7 30.02 1017 10 16 N/A
3:15 am 03:15 Clear 42 5.5 36 2.2 80 80 ESE 5 7 30.00 1016 10 16 N/A
3:35 am 03:35 Clear 41 5.2 35 1.8 79 79 ESE 5 7 30.01 1016 10 16 N/A
3:55 am 03:55 Clear 39 4.1 34 1.2 82 82 ESE 5 7 30.01 1016 10 16 N/A
4:15 am 04:15 Clear 38 3.3 34 1 85 85 ESE 5 7 30.00 1016 10 16 N/A
4:35 am 04:35 Clear 38 3.1 33 0.8 85 85 N N/A 30.01 1016 10 16 N/A
4:55 am 04:55 Clear 37 2.9 34 0.9 87 87 ESE 3 6 30.00 1016 10 16 N/A
5:15 am 05:15 Clear 37 2.5 33 0.8 89 89 SSE 3 6 30.00 1016 10 16 N/A
5:35 am 05:35 Clear 34 1.3 32 0.1 92 92 SE 5 7 30.01 1016 10 16 N/A
5:55 am 05:55 Clear 36 2 33 0.5 90 90 E 3 6 30.01 1016 10 16 N/A
6:15 am 06:15 Clear 37 2.9 33 0.7 86 86 E 5 7 29.99 1016 10 16 N/A
6:35 am 06:35 Clear 35 1.9 32 undefined 87 87 ESE 5 7 30.00 1016 10 16 N/A
6:55 am 06:55 Clear 37 2.9 33 0.7 86 86 ESE 5 7 29.99 1016 10 16 N/A
7:15 am 07:15 Clear 36 2.1 32 0.2 87 87 E 6 9 30.00 1016 10 16 N/A
7:35 am 07:35 Clear 35 1.5 32 undefined 90 90 E 5 7 30.00 1016 10 16 N/A
7:55 am 07:55 Sunny 34 1.1 32 undefined 92 92 E 6 9 30.01 1016 10 16 N/A
8:15 am 08:15 Sunny 35 1.7 33 0.3 91 91 E 6 9 30.00 1016 10 16 N/A
8:35 am 08:35 Sunny 38 3.1 35 1.4 89 89 E 5 7 29.99 1015 10 16 N/A
8:55 am 08:55 Partly Cloudy 42 5.5 37 2.7 82 82 ESE 5 7 29.96 1015 10 16 N/A
9:15 am 09:15 Sunny 46 7.5 37 2.8 72 72 SE 7 11 29.94 1014 10 16 N/A
9:35 am 09:35 Sunny 48 8.9 37 3 67 67 ENE 7 11 29.93 1014 10 16 N/A
9:55 am 09:55 Sunny 51 10.6 38 3.5 62 62 SSE 7 11 29.92 1013 10 16 N/A
10:15 am 10:15 Sunny 54 12.3 39 3.8 56 56 E 9 15 29.89 1012 10 16 N/A
10:35 am 10:35 Sunny 57 13.7 38 3.2 49 49 S 14 22 29.87 1011 10 16 N/A
10:55 am 10:55 Sunny 59 14.9 38 3.3 46 46 SSE 12 19 29.86 1011 10 16 N/A
11:15 am 11:15 Sunny 59 15.1 37 2.7 44 44 SSE 13 20 29.86 1011 10 16 N/A
11:35 am 11:35 Sunny 60 15.8 37 2.9 42 42 S 12 19 29.84 1010 10 16 N/A
11:55 am 11:55 Sunny 61 16.2 38 3.4 43 43 SSE 12 19 29.84 1010 10 16 N/A
12:15 pm 12:15 Sunny 62 16.9 39 3.8 42 42 S 15 24 29.82 1010 10 16 N/A
12:35 pm 12:35 Sunny 64 17.7 39 4 40 40 SSE 16 26 29.79 1009 10 16 N/A
12:55 pm 12:55 Sunny 65 18.6 40 4.2 39 39 SSE 17 28 29.77 1008 7 11 N/A
1:15 pm 13:15 Sunny 67 19.2 39 4.1 37 37 S 20 31 29.77 1008 10 16 N/A
1:35 pm 13:35 Sunny 63 17.4 39 4 41 41 S 16 26 29.79 1009 10 16 N/A
1:55 pm 13:55 Sunny 64 17.6 40 4.6 42 42 SSE 14 22 29.77 1008 10 16 N/A
2:15 pm 14:15 Sunny 67 19.5 40 4.6 38 38 SSE 17 28 29.75 1007 10 16 N/A
2:35 pm 14:35 Sunny 68 20 40 4.4 36 36 S 17 28 29.73 1007 10 16 N/A
2:55 pm 14:55 Sunny 70 21.1 41 4.8 35 35 SSE 21 33 29.71 1006 10 16 N/A
3:15 pm 15:15 Sunny 71 21.7 41 5.2 34 34 SSE 20 31 29.70 1006 10 16 N/A
3:35 pm 15:35 Sunny 71 21.6 41 5.2 34 34 SSE 17 28 29.70 1006 10 16 N/A
3:55 pm 15:55 Sunny 70 20.9 41 5.2 36 36 SSE 16 26 29.70 1006 10 16 N/A
4:15 pm 16:15 Sunny 71 21.9 42 5.4 34 34 S 20 31 29.69 1005 10 16 N/A
4:35 pm 16:35 Sunny 69 20.7 42 5.5 37 37 S 16 26 29.70 1006 10 16 N/A
4:55 pm 16:55 Sunny 72 22.4 43 6 35 35 S 15 24 29.67 1005 10 16 N/A
5:15 pm 17:15 Sunny 73 22.6 43 6.2 35 35 SSE 14 22 29.67 1005 10 16 N/A
5:35 pm 17:35 Sunny 71 21.8 43 6.1 36 36 SSE 15 24 29.68 1005 10 16 N/A
5:55 pm 17:55 Sunny 69 20.7 44 6.6 40 40 SSE 10 17 29.69 1005 10 16 N/A
6:15 pm 18:15 Sunny 68 20.2 43 6 40 40 SSE 14 22 29.69 1005 10 16 N/A
6:35 pm 18:35 Sunny 68 19.9 43 6 40 40 SSE 13 20 29.69 1006 10 16 N/A
6:55 pm 18:55 Clear 66 18.9 43 6.1 43 43 SSE 13 20 29.70 1006 10 16 N/A
7:15 pm 19:15 Clear 63 17.4 43 6.3 48 48 SE 9 15 29.72 1006 10 16 N/A
7:35 pm 19:35 Clear 65 18.2 43 6.2 46 46 SE 12 19 29.71 1006 10 16 N/A
7:55 pm 19:55 Clear 63 17.2 43 6.2 49 49 SSE 12 19 29.73 1007 10 16 N/A
8:15 pm 20:15 Clear 61 16.2 43 6.2 52 52 SE 12 19 29.74 1007 10 16 N/A
8:35 pm 20:35 Clear 61 16.3 43 6.1 51 51 SE 9 15 29.74 1007 10 16 N/A
8:55 pm 20:55 Clear 58 14.7 43 6.2 57 57 SE 8 13 29.76 1008 10 16 N/A
9:15 pm 21:15 Clear 58 14.3 43 6.1 58 58 SE 7 11 29.77 1008 10 16 N/A
9:35 pm 21:35 Clear 58 14.4 43 6 57 57 SE 8 13 29.77 1008 10 16 N/A
9:55 pm 21:55 Clear 58 14.7 43 6 56 56 SE 10 17 29.77 1008 10 16 N/A
10:15 pm 22:15 Clear 57 14 43 6 59 59 SE 9 15 29.78 1008 10 16 N/A
10:35 pm 22:35 Clear 55 12.8 43 6 64 64 ESE 8 13 29.80 1009 10 16 N/A
10:55 pm 22:55 Clear 54 12.2 43 6 66 66 ESE 7 11 29.80 1009 10 16 N/A
11:15 pm 23:15 Clear 53 11.6 43 6.1 69 69 SE 7 11 29.80 1009 10 16 N/A
11:35 pm 23:35 Clear 54 12 43 6.2 68 68 SE 7 11 29.79 1009 10 16 N/A
11:55 pm 23:55 Clear 53 11.8 43 6.1 68 68 SE 7 11 29.79 1009 10 16 N/A

Powered by AerisWeather